Regional Weather Roundup
Issued by NWS

Home | Current Version | Previous Version | Text Only | Print | Product List | Glossary Off
Versions: 1 2 3 4 5 6 7 8 9 10 11 12 13 14 15 16 17 18 19 20 21 22 23 24 25 26 27 28 29 30 31 32 33 34 35 36 37 38 39 40 41 42 43 44 45 46 47 48 49 50

472
ASUS43 KBIS 290810
RWRND

NORTH DAKOTA REGIONAL WEATHER ROUNDUP
NATIONAL WEATHER SERVICE BISMARCK ND
300 AM CDT FRI APR 29 2016

NOTE: "FAIR" INDICATES FEW OR NO CLOUDS BELOW 12,000 FEET WITH NO
SIGNIFICANT WEATHER AND/OR OBSTRUCTIONS TO VISIBILITY.


NDZ001>003-009>011-017-290900-
NORTHWEST NORTH DAKOTA

CITY           SKY/WX    TMP DP  RH WIND       PRES   REMARKS
WILLISTON      PTCLDY    39  25  57 N3        30.16F
MINOT          PTCLDY    41  20  43 CALM      30.18F
MINOT AFB      CLOUDY    40  21  46 NE5       30.18F
$$

NDZ018>021-031>035-040>046-290900-
SOUTHWEST NORTH DAKOTA

CITY           SKY/WX    TMP DP  RH WIND       PRES   REMARKS
BISMARCK       PTCLDY    36  31  82 CALM      30.16S
DICKINSON      PTCLDY    36  25  64 E8        30.11F
GARRISON         N/A     39  21  48 NE6       30.16F
HETTINGER ARPT CLOUDY    37  34  89 CALM      30.13F
$$

NDZ004>008-012>016-024-026-027-054-290900-
NORTHEAST NORTH DAKOTA

CITY           SKY/WX    TMP DP  RH WIND       PRES   REMARKS
GRAND FORKS    CLOUDY    33  27  78 N6        30.17S
GRND FRKS AFB  CLOUDY    35  28  75 N7        30.17S
DEVILS LAKE    CLOUDY    37  24  59 N3        30.18F
$$

NDZ022-023-025-028>030-036>039-047>053-290900-
SOUTHEAST NORTH DAKOTA

CITY           SKY/WX    TMP DP  RH WIND       PRES   REMARKS
FARGO          CLOUDY    37  28  70 E6        30.13F
JAMESTOWN      CLOUDY    36  28  73 NW3       30.14R
$$





USA.gov is the U.S. government's official web portal to all federal, state and local government web resources and services.